Location: Bacea
(45.9500°N, 22.6667°E)
Time: 07:04:44
(UTC+00:00)

Cosmos 1953 - Pass Details

Date: 29 May 2022
Orbit: 533 x 555 km, 82.5° (Epoch: 03 July)

Event Time Altitude Azimuth Distance (km) Brightness Sun altitude
Rises 21:45:06 0° 2° (N) 2,724 7.3 -21.7°
Reaches altitude 10° 21:47:37 10° 17° (NNE) 1,821 5.8 -21.7°
Maximum altitude 21:50:52 23° 72° (ENE) 1,169 4.0 -21.8°
Enters shadow 21:51:32 22° 87° (E) 1,201 3.9 -21.9°
